Time,TemperatureF,DewpointF,PressureIn,WindDirection,WindDirectionDegrees,WindSpeedMPH,WindSpeedGustMPH,Humidity,HourlyPrecipIn,Conditions,Clouds,dailyrainin,SolarRadiationWatts/m^2,SoftwareType,DateUTC
2013-03-02 00:01:00,43.0,38.5,29.99,West,280,1.0,1.0,84,0.00,,,0.00,0.0,meteohub,2013-03-02 05:01:00,
2013-03-02 00:02:00,43.0,38.5,29.99,West,280,1.0,1.0,84,0.00,,,0.00,0.0,meteohub,2013-03-02 05:02:00,
2013-03-02 00:07:00,42.6,38.1,29.99,West,280,1.0,2.0,84,0.00,,,0.00,0.0,meteohub,2013-03-02 05:07:00,
2013-03-02 00:12:00,42.4,37.9,29.99,West,280,0.0,2.0,84,0.00,,,0.00,0.0,meteohub,2013-03-02 05:12:00,
2013-03-02 00:13:00,42.4,38.3,29.99,West,280,1.0,2.0,85,0.00,,,0.00,0.0,meteohub,2013-03-02 05:13:00,
2013-03-02 00:19:00,42.3,38.1,29.99,West,280,2.0,2.0,85,0.00,,,0.00,0.0,meteohub,2013-03-02 05:19:00,
2013-03-02 00:25:00,42.1,37.9,29.99,WNW,284,3.0,5.0,85,0.00,,,0.00,0.0,meteohub,2013-03-02 05:25:00,
2013-03-02 00:31:00,41.9,37.9,29.99,WNW,284,1.0,6.0,86,0.00,,,0.00,0.0,meteohub,2013-03-02 05:31:00,
2013-03-02 00:37:00,41.7,37.8,29.99,West,280,3.0,6.0,86,0.00,,,0.00,0.0,meteohub,2013-03-02 05:37:00,
2013-03-02 00:42:00,41.7,37.8,29.99,West,280,1.0,5.0,86,0.00,,,0.00,0.0,meteohub,2013-03-02 05:42:00,
2013-03-02 00:47:00,41.5,37.4,29.99,West,280,2.0,5.0,85,0.00,,,0.00,0.0,meteohub,2013-03-02 05:47:00,
2013-03-02 00:52:00,41.5,37.4,30.00,West,280,0.0,5.0,85,0.00,,,0.00,0.0,meteohub,2013-03-02 05:52:00,
2013-03-02 00:57:00,41.5,37.0,30.00,WNW,282,0.0,5.0,84,0.00,,,0.00,0.0,meteohub,2013-03-02 05:57:00,
2013-03-02 01:02:00,41.5,37.0,29.99,West,259,0.0,5.0,84,0.00,,,0.00,0.0,meteohub,2013-03-02 06:02:00,
2013-03-02 01:07:00,41.5,36.7,30.00,WNW,285,0.0,3.0,83,0.00,,,0.00,0.0,meteohub,2013-03-02 06:07:00,
2013-03-02 01:12:00,41.5,36.7,30.00,West,270,1.0,5.0,83,0.00,,,0.00,0.0,meteohub,2013-03-02 06:12:00,
2013-03-02 01:17:00,41.5,36.5,30.00,WSW,253,2.0,5.0,82,0.00,,,0.00,0.0,meteohub,2013-03-02 06:17:00,
2013-03-02 01:22:00,41.5,36.5,30.00,West,273,1.0,5.0,82,0.00,,,0.00,0.0,meteohub,2013-03-02 06:22:00,
2013-03-02 01:27:00,41.5,36.1,30.00,West,277,0.0,4.0,81,0.00,,,0.00,0.0,meteohub,2013-03-02 06:27:00,
2013-03-02 01:32:00,41.5,36.1,30.00,WSW,257,2.0,4.0,81,0.00,,,0.00,0.0,meteohub,2013-03-02 06:32:00,
2013-03-02 01:37:00,41.5,36.1,30.00,West,280,1.0,3.0,81,0.00,,,0.00,0.0,meteohub,2013-03-02 06:37:00,
2013-03-02 01:42:00,41.4,36.0,30.00,West,280,0.0,3.0,81,0.00,,,0.00,0.0,meteohub,2013-03-02 06:42:00,
2013-03-02 01:47:00,41.4,36.0,30.00,West,280,0.0,3.0,81,0.00,,,0.00,0.0,meteohub,2013-03-02 06:47:00,
2013-03-02 01:52:00,41.2,35.8,30.00,West,280,0.0,1.0,81,0.00,,,0.00,0.0,meteohub,2013-03-02 06:52:00,
2013-03-02 01:57:00,41.0,37.2,30.00,West,280,0.0,1.0,86,0.00,,,0.00,0.0,meteohub,2013-03-02 06:57:00,
2013-03-02 02:02:00,40.8,35.8,30.00,West,280,0.0,0.0,82,0.00,,,0.00,0.0,meteohub,2013-03-02 07:02:00,
2013-03-02 02:07:00,40.6,35.6,30.00,West,280,0.0,0.0,82,0.00,,,0.00,0.0,meteohub,2013-03-02 07:07:00,
2013-03-02 02:12:00,40.5,35.4,30.00,West,280,0.0,0.0,82,0.00,,,0.00,0.0,meteohub,2013-03-02 07:12:00,
2013-03-02 02:17:00,40.3,35.2,29.99,West,280,0.0,0.0,82,0.00,,,0.00,0.0,meteohub,2013-03-02 07:17:00,
2013-03-02 02:22:00,39.9,35.2,29.99,West,280,0.0,0.0,83,0.00,,,0.00,0.0,meteohub,2013-03-02 07:22:00,
2013-03-02 02:27:00,39.7,35.1,29.99,West,280,0.0,0.0,83,0.00,,,0.00,0.0,meteohub,2013-03-02 07:27:00,
2013-03-02 02:32:00,39.6,34.9,29.99,West,280,0.0,0.0,83,0.00,,,0.00,0.0,meteohub,2013-03-02 07:32:00,
2013-03-02 02:37:00,39.4,34.7,29.99,West,280,0.0,0.0,83,0.00,,,0.00,0.0,meteohub,2013-03-02 07:37:00,
2013-03-02 02:42:00,39.0,34.3,29.99,West,280,0.0,0.0,83,0.00,,,0.00,0.0,meteohub,2013-03-02 07:42:00,
2013-03-02 02:47:00,38.8,34.2,29.99,West,280,0.0,0.0,83,0.00,,,0.00,0.0,meteohub,2013-03-02 07:47:00,
2013-03-02 02:52:00,38.7,34.0,29.99,West,280,0.0,0.0,83,0.00,,,0.00,0.0,meteohub,2013-03-02 07:52:00,
2013-03-02 02:57:00,38.5,34.2,29.99,West,280,0.0,0.0,84,0.00,,,0.00,0.0,meteohub,2013-03-02 07:57:00,
2013-03-02 03:02:00,38.3,34.0,29.99,West,280,0.0,0.0,84,0.00,,,0.00,0.0,meteohub,2013-03-02 08:02:00,
2013-03-02 03:07:00,38.1,33.8,29.99,West,280,0.0,0.0,84,0.00,,,0.00,0.0,meteohub,2013-03-02 08:07:00,
2013-03-02 03:12:00,37.9,33.6,29.99,West,280,0.0,0.0,84,0.00,,,0.00,0.0,meteohub,2013-03-02 08:12:00,
2013-03-02 03:17:00,37.8,33.6,29.99,West,280,0.0,0.0,85,0.00,,,0.00,0.0,meteohub,2013-03-02 08:17:00,
2013-03-02 03:22:00,37.6,33.4,29.99,West,280,0.0,0.0,85,0.00,,,0.00,0.0,meteohub,2013-03-02 08:22:00,
2013-03-02 03:27:00,37.4,33.3,29.99,West,280,0.0,0.0,85,0.00,,,0.00,0.0,meteohub,2013-03-02 08:27:00,
2013-03-02 03:32:00,37.2,33.1,29.99,West,280,0.0,0.0,85,0.00,,,0.00,0.0,meteohub,2013-03-02 08:32:00,
2013-03-02 03:37:00,37.2,33.1,29.98,West,280,0.0,0.0,85,0.00,,,0.00,0.0,meteohub,2013-03-02 08:37:00,
2013-03-02 03:42:00,37.0,33.3,29.98,West,280,0.0,0.0,86,0.00,,,0.00,0.0,meteohub,2013-03-02 08:42:00,
2013-03-02 03:47:00,36.9,33.1,29.99,West,280,0.0,0.0,86,0.00,,,0.00,0.0,meteohub,2013-03-02 08:47:00,
2013-03-02 03:52:00,36.9,33.4,29.99,West,280,0.0,0.0,87,0.00,,,0.00,0.0,meteohub,2013-03-02 08:52:00,
2013-03-02 03:57:00,36.7,33.3,29.99,West,280,0.0,0.0,87,0.00,,,0.00,0.0,meteohub,2013-03-02 08:57:00,
2013-03-02 04:02:00,36.5,33.3,29.99,West,280,0.0,0.0,88,0.00,,,0.00,0.0,meteohub,2013-03-02 09:02:00,
2013-03-02 04:07:00,36.3,33.1,29.99,West,280,0.0,0.0,88,0.00,,,0.00,0.0,meteohub,2013-03-02 09:07:00,
2013-03-02 04:12:00,36.3,33.1,29.99,West,280,0.0,0.0,88,0.00,,,0.00,0.0,meteohub,2013-03-02 09:12:00,
2013-03-02 04:17:00,36.1,32.9,29.99,West,280,0.0,1.0,88,0.00,,,0.00,0.0,meteohub,2013-03-02 09:17:00,
2013-03-02 04:22:00,36.1,33.3,29.99,West,280,0.0,1.0,89,0.00,,,0.00,0.0,meteohub,2013-03-02 09:22:00,
2013-03-02 04:27:00,36.1,33.3,29.99,West,280,0.0,1.0,89,0.00,,,0.00,0.0,meteohub,2013-03-02 09:27:00,
2013-03-02 04:32:00,36.0,33.1,29.99,West,280,0.0,1.0,89,0.00,,,0.00,0.0,meteohub,2013-03-02 09:32:00,
2013-03-02 04:37:00,36.0,33.3,29.99,West,280,0.0,1.0,90,0.00,,,0.00,0.0,meteohub,2013-03-02 09:37:00,
2013-03-02 04:42:00,36.0,33.3,29.99,West,280,0.0,2.0,90,0.00,,,0.00,0.0,meteohub,2013-03-02 09:42:00,
2013-03-02 04:49:00,35.8,33.1,29.99,West,280,0.0,2.0,90,0.00,,,0.00,0.0,meteohub,2013-03-02 09:49:00,
2013-03-02 04:55:00,35.8,33.1,29.99,West,280,0.0,2.0,90,0.00,,,0.00,0.0,meteohub,2013-03-02 09:55:00,
2013-03-02 05:01:00,35.8,33.4,29.99,West,280,0.0,2.0,91,0.00,,,0.00,0.0,meteohub,2013-03-02 10:01:00,
2013-03-02 05:07:00,35.8,33.4,29.99,West,280,0.0,2.0,91,0.00,,,0.00,0.0,meteohub,2013-03-02 10:07:00,
2013-03-02 05:13:00,35.6,33.3,29.99,West,280,0.0,1.0,91,0.00,,,0.00,0.0,meteohub,2013-03-02 10:13:00,
2013-03-02 05:20:00,35.4,33.1,29.99,West,280,0.0,1.0,91,0.00,,,0.00,0.0,meteohub,2013-03-02 10:20:00,
2013-03-02 05:26:00,35.4,33.1,29.99,West,280,0.0,0.0,91,0.00,,,0.00,0.0,meteohub,2013-03-02 10:26:00,
2013-03-02 05:32:00,35.2,32.9,29.98,West,280,0.0,1.0,91,0.00,,,0.00,0.0,meteohub,2013-03-02 10:32:00,
2013-03-02 05:37:00,35.2,32.9,29.99,West,280,0.0,1.0,91,0.00,,,0.00,0.0,meteohub,2013-03-02 10:37:00,
2013-03-02 05:44:00,35.2,32.9,29.98,West,280,0.0,1.0,91,0.00,,,0.00,0.0,meteohub,2013-03-02 10:44:00,
2013-03-02 05:51:00,35.1,32.7,29.99,West,280,0.0,1.0,91,0.00,,,0.00,0.0,meteohub,2013-03-02 10:51:00,
2013-03-02 05:57:00,35.1,32.9,29.99,West,280,0.0,1.0,92,0.00,,,0.00,0.0,meteohub,2013-03-02 10:57:00,
2013-03-02 06:02:00,35.1,32.9,29.99,West,280,0.0,1.0,92,0.00,,,0.00,0.0,meteohub,2013-03-02 11:02:00,
2013-03-02 06:09:00,34.9,32.7,29.99,West,280,0.0,1.0,92,0.00,,,0.00,0.0,meteohub,2013-03-02 11:09:00,
2013-03-02 06:15:00,34.9,32.7,29.99,West,280,0.0,1.0,92,0.00,,,0.00,0.0,meteohub,2013-03-02 11:15:00,
2013-03-02 06:21:00,34.9,32.7,29.99,West,280,0.0,1.0,92,0.00,,,0.00,0.0,meteohub,2013-03-02 11:21:00,
2013-03-02 06:27:00,34.9,32.7,29.99,West,280,0.0,1.0,92,0.00,,,0.00,0.0,meteohub,2013-03-02 11:27:00,
2013-03-02 06:32:00,34.9,32.7,29.98,West,280,0.0,1.0,92,0.00,,,0.00,0.0,meteohub,2013-03-02 11:32:00,
2013-03-02 06:37:00,34.9,32.7,29.98,West,280,0.0,1.0,92,0.00,,,0.00,0.0,meteohub,2013-03-02 11:37:00,
2013-03-02 06:42:00,34.9,32.7,29.98,West,280,0.0,0.0,92,0.00,,,0.00,0.0,meteohub,2013-03-02 11:42:00,
2013-03-02 06:47:00,34.7,32.5,29.98,West,280,0.0,0.0,92,0.00,,,0.00,0.0,meteohub,2013-03-02 11:47:00,
2013-03-02 06:52:00,34.7,32.5,29.98,West,280,0.0,0.0,92,0.00,,,0.00,0.0,meteohub,2013-03-02 11:52:00,
2013-03-02 06:58:00,34.5,32.4,29.98,West,280,0.0,0.0,92,0.00,,,0.00,5.0,meteohub,2013-03-02 11:58:00,
2013-03-02 07:05:00,34.3,32.2,29.98,West,280,0.0,0.0,92,0.00,,,0.00,9.0,meteohub,2013-03-02 12:05:00,
2013-03-02 07:11:00,34.3,32.2,29.99,West,280,1.0,0.0,92,0.00,,,0.00,12.0,meteohub,2013-03-02 12:11:00,
2013-03-02 07:17:00,34.3,32.2,29.99,West,280,0.0,1.0,92,0.00,,,0.00,16.0,meteohub,2013-03-02 12:17:00,
2013-03-02 07:22:00,34.5,32.7,29.98,West,280,0.0,2.0,93,0.00,,,0.00,19.0,meteohub,2013-03-02 12:22:00,
2013-03-02 07:27:00,34.5,32.7,29.98,West,280,0.0,2.0,93,0.00,,,0.00,23.0,meteohub,2013-03-02 12:27:00,
2013-03-02 07:32:00,34.7,32.9,29.98,West,280,0.0,2.0,93,0.00,,,0.00,32.0,meteohub,2013-03-02 12:32:00,
2013-03-02 07:37:00,35.1,33.3,29.98,West,280,2.0,2.0,93,0.00,,,0.00,30.0,meteohub,2013-03-02 12:37:00,
2013-03-02 07:42:00,35.2,33.4,29.99,West,280,0.0,3.0,93,0.00,,,0.00,37.0,meteohub,2013-03-02 12:42:00,
2013-03-02 07:47:00,35.6,33.8,29.99,West,280,1.0,3.0,93,0.00,,,0.00,62.0,meteohub,2013-03-02 12:47:00,
2013-03-02 07:52:00,36.0,34.3,29.98,West,280,0.0,3.0,94,0.00,,,0.00,51.0,meteohub,2013-03-02 12:52:00,
2013-03-02 07:57:00,36.9,35.2,29.98,West,280,2.0,3.0,94,0.00,,,0.00,74.0,meteohub,2013-03-02 12:57:00,
2013-03-02 08:02:00,37.2,35.6,29.99,West,281,0.0,3.0,94,0.00,,,0.00,56.0,meteohub,2013-03-02 13:02:00,
2013-03-02 08:09:00,37.8,36.0,29.99,WNW,282,1.0,5.0,93,0.00,,,0.00,51.0,meteohub,2013-03-02 13:09:00,
2013-03-02 08:15:00,37.9,36.1,29.99,West,273,1.0,5.0,93,0.00,,,0.00,69.0,meteohub,2013-03-02 13:15:00,
2013-03-02 08:21:00,38.5,36.7,29.99,West,267,1.0,3.0,93,0.00,,,0.00,139.0,meteohub,2013-03-02 13:21:00,
2013-03-02 08:27:00,39.0,37.2,29.99,WNW,282,1.0,5.0,93,0.00,,,0.00,153.0,meteohub,2013-03-02 13:27:00,
2013-03-02 08:32:00,40.3,38.1,29.99,West,259,2.0,5.0,92,0.00,,,0.00,176.0,meteohub,2013-03-02 13:32:00,
2013-03-02 08:37:00,41.2,38.1,29.99,West,278,0.0,7.0,89,0.00,,,0.00,135.0,meteohub,2013-03-02 13:37:00,
2013-03-02 08:42:00,41.9,37.9,29.99,West,279,1.0,7.0,86,0.00,,,0.00,67.0,meteohub,2013-03-02 13:42:00,
2013-03-02 08:47:00,42.4,38.3,30.00,West,275,2.0,6.0,85,0.00,,,0.00,207.0,meteohub,2013-03-02 13:47:00,
2013-03-02 08:52:00,42.6,37.8,29.99,WSW,257,0.0,6.0,83,0.00,,,0.00,60.0,meteohub,2013-03-02 13:52:00,
2013-03-02 08:57:00,43.3,38.3,29.99,West,275,0.0,5.0,82,0.00,,,0.00,121.0,meteohub,2013-03-02 13:57:00,
2013-03-02 09:02:00,43.3,37.2,29.99,West,273,4.0,5.0,79,0.00,,,0.00,179.0,meteohub,2013-03-02 14:02:00,
2013-03-02 09:07:00,44.1,37.9,29.99,West,281,3.0,7.0,79,0.00,,,0.00,315.0,meteohub,2013-03-02 14:07:00,
2013-03-02 09:13:00,45.1,37.9,29.99,West,274,3.0,7.0,76,0.00,,,0.00,237.0,meteohub,2013-03-02 14:13:00,
2013-03-02 09:20:00,45.7,38.3,29.99,WNW,290,6.0,7.0,75,0.00,,,0.00,279.0,meteohub,2013-03-02 14:20:00,
2013-03-02 09:26:00,46.6,39.4,29.99,NNW,341,1.0,9.0,76,0.00,,,0.00,364.0,meteohub,2013-03-02 14:26:00,
2013-03-02 09:32:00,45.9,37.4,29.99,WNW,283,0.0,9.0,72,0.00,,,0.00,153.0,meteohub,2013-03-02 14:32:00,
2013-03-02 09:37:00,45.7,36.9,30.00,WNW,284,11.0,11.0,71,0.00,,,0.00,397.0,meteohub,2013-03-02 14:37:00,
2013-03-02 09:42:00,45.0,36.9,29.99,West,279,3.0,11.0,73,0.00,,,0.00,443.0,meteohub,2013-03-02 14:42:00,
2013-03-02 09:47:00,44.8,36.3,29.99,West,274,1.0,13.0,72,0.00,,,0.00,522.0,meteohub,2013-03-02 14:47:00,
2013-03-02 09:52:00,45.3,37.2,30.00,WSW,258,7.0,13.0,73,0.00,,,0.00,554.0,meteohub,2013-03-02 14:52:00,
2013-03-02 09:57:00,45.9,37.4,29.99,WNW,300,3.0,13.0,72,0.00,,,0.00,652.0,meteohub,2013-03-02 14:57:00,
2013-03-02 10:02:00,46.2,36.7,29.99,West,278,7.0,13.0,69,0.00,,,0.00,705.0,meteohub,2013-03-02 15:02:00,
2013-03-02 10:09:00,45.0,35.8,30.00,West,275,6.0,11.0,70,0.00,,,0.00,236.0,meteohub,2013-03-02 15:09:00,
2013-03-02 10:15:00,45.7,37.2,30.00,West,271,3.0,11.0,72,0.00,,,0.00,246.0,meteohub,2013-03-02 15:15:00,
2013-03-02 10:21:00,45.5,36.0,29.99,WNW,289,5.0,14.0,69,0.00,,,0.00,283.0,meteohub,2013-03-02 15:21:00,
2013-03-02 10:27:00,46.0,36.9,29.99,West,271,5.0,14.0,70,0.00,,,0.00,297.0,meteohub,2013-03-02 15:27:00,
2013-03-02 10:32:00,46.4,36.5,29.99,West,268,6.0,14.0,68,0.00,,,0.00,302.0,meteohub,2013-03-02 15:32:00,
2013-03-02 10:37:00,46.6,36.1,30.00,WSW,246,2.0,12.0,67,0.00,,,0.00,288.0,meteohub,2013-03-02 15:37:00,
2013-03-02 10:42:00,46.2,35.4,29.99,West,275,4.0,12.0,66,0.00,,,0.00,213.0,meteohub,2013-03-02 15:42:00,
2013-03-02 10:47:00,46.6,35.4,29.99,NNW,339,3.0,13.0,65,0.00,,,0.00,244.0,meteohub,2013-03-02 15:47:00,
2013-03-02 10:52:00,46.2,34.7,29.99,West,278,5.0,13.0,64,0.00,,,0.00,265.0,meteohub,2013-03-02 15:52:00,
2013-03-02 10:57:00,45.9,34.7,29.99,West,273,4.0,13.0,65,0.00,,,0.00,257.0,meteohub,2013-03-02 15:57:00,
2013-03-02 11:02:00,46.0,34.5,29.99,WNW,288,3.0,12.0,64,0.00,,,0.00,200.0,meteohub,2013-03-02 16:02:00,
2013-03-02 11:07:00,46.9,35.4,29.99,WNW,286,3.0,12.0,64,0.00,,,0.00,276.0,meteohub,2013-03-02 16:07:00,
2013-03-02 11:12:00,46.6,34.7,29.99,NW,309,7.0,12.0,63,0.00,,,0.00,214.0,meteohub,2013-03-02 16:12:00,
2013-03-02 11:17:00,45.9,34.0,29.99,West,276,5.0,14.0,63,0.00,,,0.00,197.0,meteohub,2013-03-02 16:17:00,
2013-03-02 11:22:00,45.9,34.3,29.99,WSW,253,5.0,14.0,64,0.00,,,0.00,251.0,meteohub,2013-03-02 16:22:00,
2013-03-02 11:27:00,46.2,34.3,29.99,West,267,4.0,14.0,63,0.00,,,0.00,325.0,meteohub,2013-03-02 16:27:00,
2013-03-02 11:32:00,46.2,34.3,29.99,WNW,288,0.0,14.0,63,0.00,,,0.00,204.0,meteohub,2013-03-02 16:32:00,
2013-03-02 11:37:00,46.2,34.7,29.99,West,279,10.0,14.0,64,0.00,,,0.00,220.0,meteohub,2013-03-02 16:37:00,
2013-03-02 11:42:00,46.2,34.3,29.99,West,279,3.0,12.0,63,0.00,,,0.00,350.0,meteohub,2013-03-02 16:42:00,
2013-03-02 11:47:00,46.9,34.5,29.99,WSW,251,4.0,12.0,62,0.00,,,0.00,348.0,meteohub,2013-03-02 16:47:00,
2013-03-02 11:52:00,48.9,35.2,29.99,NW,309,2.0,12.0,59,0.00,,,0.00,330.0,meteohub,2013-03-02 16:52:00,
2013-03-02 11:57:00,48.0,34.3,29.99,West,261,7.0,13.0,59,0.00,,,0.00,276.0,meteohub,2013-03-02 16:57:00,
2013-03-02 12:02:00,47.8,34.7,29.99,West,281,4.0,13.0,60,0.00,,,0.00,1055.0,meteohub,2013-03-02 17:02:00,
2013-03-02 12:08:00,48.4,33.8,29.99,West,276,0.0,13.0,57,0.00,,,0.00,223.0,meteohub,2013-03-02 17:08:00,
2013-03-02 12:15:00,46.9,33.8,29.99,NNW,339,3.0,9.0,60,0.00,,,0.00,352.0,meteohub,2013-03-02 17:15:00,
2013-03-02 12:21:00,46.9,33.8,29.99,WNW,303,7.0,12.0,60,0.00,,,0.00,200.0,meteohub,2013-03-02 17:21:00,
2013-03-02 12:27:00,46.6,34.7,29.99,WNW,289,7.0,12.0,63,0.00,,,0.00,279.0,meteohub,2013-03-02 17:27:00,
2013-03-02 12:32:00,47.1,35.2,29.99,West,277,3.0,11.0,63,0.00,,,0.00,425.0,meteohub,2013-03-02 17:32:00,
2013-03-02 12:37:00,48.0,35.2,29.98,West,272,1.0,11.0,61,0.00,,,0.00,561.0,meteohub,2013-03-02 17:37:00,
2013-03-02 12:42:00,48.6,35.2,29.98,West,278,3.0,10.0,60,0.00,,,0.00,288.0,meteohub,2013-03-02 17:42:00,
2013-03-02 12:47:00,47.8,34.7,29.98,West,278,5.0,10.0,60,0.00,,,0.00,239.0,meteohub,2013-03-02 17:47:00,
2013-03-02 12:52:00,47.3,34.2,29.98,WNW,283,1.0,10.0,60,0.00,,,0.00,302.0,meteohub,2013-03-02 17:52:00,
2013-03-02 12:57:00,47.8,35.1,29.97,NW,312,0.0,11.0,61,0.00,,,0.00,336.0,meteohub,2013-03-02 17:57:00,
2013-03-02 13:02:00,47.8,34.2,29.97,West,275,7.0,12.0,59,0.00,,,0.00,278.0,meteohub,2013-03-02 18:02:00,
2013-03-02 13:07:00,47.5,33.4,29.97,West,279,5.0,12.0,58,0.00,,,0.00,287.0,meteohub,2013-03-02 18:07:00,
2013-03-02 13:12:00,47.7,34.5,29.96,West,269,9.0,12.0,60,0.00,,,0.00,352.0,meteohub,2013-03-02 18:12:00,
2013-03-02 13:17:00,48.4,34.7,29.96,NW,304,3.0,14.0,59,0.00,,,0.00,343.0,meteohub,2013-03-02 18:17:00,
2013-03-02 13:22:00,48.7,34.7,29.96,NNE,22,3.0,14.0,58,0.00,,,0.00,371.0,meteohub,2013-03-02 18:22:00,
2013-03-02 13:27:00,48.6,34.0,29.96,West,275,6.0,14.0,57,0.00,,,0.00,445.0,meteohub,2013-03-02 18:27:00,
2013-03-02 13:34:00,47.8,34.2,29.95,WNW,292,7.0,13.0,59,0.00,,,0.00,359.0,meteohub,2013-03-02 18:34:00,
2013-03-02 13:40:00,47.7,34.0,29.95,West,263,1.0,17.0,59,0.00,,,0.00,327.0,meteohub,2013-03-02 18:40:00,
2013-03-02 13:47:00,48.4,34.7,29.95,West,273,10.0,17.0,59,0.00,,,0.00,339.0,meteohub,2013-03-02 18:47:00,
2013-03-02 13:52:00,47.7,33.3,29.95,WNW,288,1.0,15.0,57,0.00,,,0.00,341.0,meteohub,2013-03-02 18:52:00,
2013-03-02 13:57:00,47.8,33.8,29.94,West,267,7.0,13.0,58,0.00,,,0.00,480.0,meteohub,2013-03-02 18:57:00,
2013-03-02 14:02:00,48.0,34.0,29.94,WNW,285,9.0,13.0,58,0.00,,,0.00,272.0,meteohub,2013-03-02 19:02:00,
2013-03-02 14:08:00,47.5,33.8,29.94,SW,218,4.0,11.0,59,0.00,,,0.00,299.0,meteohub,2013-03-02 19:08:00,
2013-03-02 14:14:00,47.7,34.0,29.94,WNW,282,7.0,13.0,59,0.00,,,0.00,339.0,meteohub,2013-03-02 19:14:00,
2013-03-02 14:20:00,47.7,33.6,29.94,WSW,244,5.0,13.0,58,0.00,,,0.00,316.0,meteohub,2013-03-02 19:20:00,
2013-03-02 14:26:00,48.4,33.8,29.94,West,281,12.0,12.0,57,0.00,,,0.00,274.0,meteohub,2013-03-02 19:26:00,
2013-03-02 14:32:00,47.8,33.3,29.94,West,260,3.0,14.0,57,0.00,,,0.00,283.0,meteohub,2013-03-02 19:32:00,
2013-03-02 14:37:00,47.7,33.3,29.95,West,280,3.0,17.0,57,0.00,,,0.00,320.0,meteohub,2013-03-02 19:37:00,
2013-03-02 14:42:00,47.3,32.9,29.94,West,263,7.0,17.0,57,0.00,,,0.00,274.0,meteohub,2013-03-02 19:42:00,
2013-03-02 14:47:00,47.5,33.1,29.95,West,263,6.0,14.0,57,0.00,,,0.00,381.0,meteohub,2013-03-02 19:47:00,
2013-03-02 14:52:00,47.8,33.3,29.95,West,279,1.0,14.0,57,0.00,,,0.00,246.0,meteohub,2013-03-02 19:52:00,
2013-03-02 14:57:00,47.5,33.1,29.95,West,281,1.0,14.0,57,0.00,,,0.00,207.0,meteohub,2013-03-02 19:57:00,
2013-03-02 15:02:00,46.9,32.5,29.95,NW,317,5.0,12.0,57,0.00,,,0.00,179.0,meteohub,2013-03-02 20:02:00,
2013-03-02 15:10:00,46.6,33.1,29.95,West,278,5.0,12.0,59,0.00,,,0.00,202.0,meteohub,2013-03-02 20:10:00,
2013-03-02 15:16:00,46.6,33.1,29.95,West,273,10.0,11.0,59,0.00,,,0.00,174.0,meteohub,2013-03-02 20:16:00,
2013-03-02 15:22:00,46.2,32.7,29.95,WNW,296,0.0,11.0,59,0.00,,,0.00,146.0,meteohub,2013-03-02 20:22:00,
2013-03-02 15:27:00,46.2,33.1,29.95,West,269,4.0,11.0,60,0.00,,,0.00,160.0,meteohub,2013-03-02 20:27:00,
2013-03-02 15:32:00,46.2,32.7,29.95,West,273,7.0,13.0,59,0.00,,,0.00,169.0,meteohub,2013-03-02 20:32:00,
2013-03-02 15:37:00,46.2,32.7,29.95,West,265,1.0,13.0,59,0.00,,,0.00,134.0,meteohub,2013-03-02 20:37:00,
2013-03-02 15:43:00,46.2,33.1,29.95,WNW,283,7.0,13.0,60,0.00,,,0.00,151.0,meteohub,2013-03-02 20:43:00,
2013-03-02 15:49:00,46.0,33.3,29.95,NNW,335,3.0,10.0,61,0.00,,,0.00,186.0,meteohub,2013-03-02 20:49:00,
2013-03-02 15:56:00,46.2,32.7,29.95,West,266,3.0,14.0,59,0.00,,,0.00,183.0,meteohub,2013-03-02 20:56:00,
2013-03-02 16:02:00,46.0,32.5,29.95,NW,309,4.0,14.0,59,0.00,,,0.00,141.0,meteohub,2013-03-02 21:02:00,
2013-03-02 16:07:00,46.0,32.5,29.95,West,279,5.0,12.0,59,0.00,,,0.00,178.0,meteohub,2013-03-02 21:07:00,
2013-03-02 16:14:00,45.9,32.7,29.95,West,280,0.0,12.0,60,0.00,,,0.00,149.0,meteohub,2013-03-02 21:14:00,
2013-03-02 16:20:00,45.9,33.3,29.95,WSW,250,5.0,11.0,61,0.00,,,0.00,111.0,meteohub,2013-03-02 21:20:00,
2013-03-02 16:26:00,45.9,32.4,29.96,West,276,1.0,10.0,59,0.00,,,0.00,107.0,meteohub,2013-03-02 21:26:00,
2013-03-02 16:39:00,45.7,32.5,29.96,West,280,3.0,12.0,60,0.00,,,0.00,120.0,meteohub,2013-03-02 21:39:00,
2013-03-02 16:45:00,45.7,33.1,29.96,West,271,5.0,12.0,61,0.00,,,0.00,127.0,meteohub,2013-03-02 21:45:00,
2013-03-02 16:51:00,45.7,32.5,29.96,West,278,3.0,9.0,60,0.00,,,0.00,123.0,meteohub,2013-03-02 21:51:00,
2013-03-02 16:57:00,45.7,32.5,29.96,WNW,298,1.0,9.0,60,0.00,,,0.00,132.0,meteohub,2013-03-02 21:57:00,
2013-03-02 17:02:00,45.7,32.2,29.96,WNW,289,2.0,10.0,59,0.00,,,0.00,125.0,meteohub,2013-03-02 22:02:00,
2013-03-02 17:07:00,45.3,31.8,29.96,WNW,290,0.0,12.0,59,0.00,,,0.00,111.0,meteohub,2013-03-02 22:07:00,
2013-03-02 17:12:00,45.3,31.8,29.96,NW,307,1.0,12.0,59,0.00,,,0.00,102.0,meteohub,2013-03-02 22:12:00,
2013-03-02 17:17:00,45.3,32.2,29.97,SSW,201,1.0,14.0,60,0.00,,,0.00,83.0,meteohub,2013-03-02 22:17:00,
2013-03-02 17:22:00,45.1,32.0,29.96,West,276,5.0,14.0,60,0.00,,,0.00,97.0,meteohub,2013-03-02 22:22:00,
2013-03-02 17:27:00,45.0,32.0,29.96,West,273,1.0,14.0,60,0.00,,,0.00,72.0,meteohub,2013-03-02 22:27:00,
2013-03-02 17:32:00,45.0,32.0,29.96,West,281,3.0,11.0,60,0.00,,,0.00,56.0,meteohub,2013-03-02 22:32:00,
2013-03-02 17:37:00,44.8,31.8,29.96,WSW,257,2.0,10.0,60,0.00,,,0.00,44.0,meteohub,2013-03-02 22:37:00,
2013-03-02 17:42:00,44.6,32.0,29.97,West,269,6.0,10.0,61,0.00,,,0.00,40.0,meteohub,2013-03-02 22:42:00,
2013-03-02 17:47:00,44.4,31.8,29.97,NNW,328,1.0,10.0,61,0.00,,,0.00,30.0,meteohub,2013-03-02 22:47:00,
2013-03-02 17:52:00,44.2,32.0,29.97,West,280,3.0,9.0,62,0.00,,,0.00,23.0,meteohub,2013-03-02 22:52:00,
2013-03-02 17:57:00,44.1,32.4,29.98,West,275,4.0,9.0,63,0.00,,,0.00,18.0,meteohub,2013-03-02 22:57:00,
2013-03-02 18:02:00,44.1,32.4,29.98,WNW,282,2.0,11.0,63,0.00,,,0.00,12.0,meteohub,2013-03-02 23:02:00,
2013-03-02 18:07:00,43.9,32.2,29.98,WNW,284,3.0,11.0,63,0.00,,,0.00,12.0,meteohub,2013-03-02 23:07:00,
2013-03-02 18:12:00,43.5,31.8,29.98,West,277,0.0,11.0,63,0.00,,,0.00,9.0,meteohub,2013-03-02 23:12:00,
2013-03-02 18:17:00,43.5,32.2,29.98,WNW,288,2.0,9.0,64,0.00,,,0.00,5.0,meteohub,2013-03-02 23:17:00,
2013-03-02 18:23:00,43.3,32.0,29.99,West,276,3.0,9.0,64,0.00,,,0.00,0.0,meteohub,2013-03-02 23:23:00,
2013-03-02 18:29:00,43.2,32.2,29.99,West,276,4.0,7.0,65,0.00,,,0.00,0.0,meteohub,2013-03-02 23:29:00,
2013-03-02 18:35:00,43.0,32.0,29.99,West,281,0.0,9.0,65,0.00,,,0.00,0.0,meteohub,2013-03-02 23:35:00,
2013-03-02 18:42:00,43.0,32.4,29.99,West,279,1.0,9.0,66,0.00,,,0.00,0.0,meteohub,2013-03-02 23:42:00,
2013-03-02 18:47:00,42.8,32.2,29.99,West,273,3.0,9.0,66,0.00,,,0.00,0.0,meteohub,2013-03-02 23:47:00,
2013-03-02 18:52:00,42.8,32.2,30.00,West,279,0.0,7.0,66,0.00,,,0.00,0.0,meteohub,2013-03-02 23:52:00,
2013-03-02 18:57:00,42.6,32.0,30.00,West,281,3.0,7.0,66,0.00,,,0.00,0.0,meteohub,2013-03-02 23:57:00,
2013-03-02 19:02:00,42.6,32.4,30.00,West,281,3.0,7.0,67,0.00,,,0.00,0.0,meteohub,2013-03-03 00:02:00,
2013-03-02 19:07:00,42.6,32.0,30.00,WNW,284,0.0,6.0,66,0.00,,,0.00,0.0,meteohub,2013-03-03 00:07:00,
2013-03-02 19:12:00,42.4,31.8,30.00,West,274,3.0,6.0,66,0.00,,,0.00,0.0,meteohub,2013-03-03 00:12:00,
2013-03-02 19:17:00,42.4,31.8,30.00,WNW,291,1.0,7.0,66,0.00,,,0.00,0.0,meteohub,2013-03-03 00:17:00,
2013-03-02 19:22:00,42.4,32.2,30.01,WNW,289,0.0,7.0,67,0.00,,,0.00,0.0,meteohub,2013-03-03 00:22:00,
2013-03-02 19:27:00,42.4,32.2,30.01,West,271,4.0,7.0,67,0.00,,,0.00,0.0,meteohub,2013-03-03 00:27:00,
2013-03-02 19:32:00,42.3,32.2,30.01,West,271,1.0,6.0,67,0.00,,,0.00,0.0,meteohub,2013-03-03 00:32:00,
2013-03-02 19:37:00,42.3,32.5,30.01,WNW,291,0.0,6.0,68,0.00,,,0.00,0.0,meteohub,2013-03-03 00:37:00,
2013-03-02 19:42:00,42.3,32.5,30.01,West,271,0.0,5.0,68,0.00,,,0.00,0.0,meteohub,2013-03-03 00:42:00,
2013-03-02 19:47:00,42.3,32.5,30.01,WSW,258,2.0,4.0,68,0.00,,,0.00,0.0,meteohub,2013-03-03 00:47:00,
2013-03-02 19:52:00,41.9,32.2,30.01,West,274,0.0,6.0,68,0.00,,,0.00,0.0,meteohub,2013-03-03 00:52:00,
2013-03-02 19:57:00,41.7,32.0,30.01,West,276,1.0,6.0,68,0.00,,,0.00,0.0,meteohub,2013-03-03 00:57:00,
2013-03-02 20:04:00,41.5,31.8,30.01,West,273,1.0,6.0,68,0.00,,,0.00,0.0,meteohub,2013-03-03 01:04:00,
2013-03-02 20:11:00,41.5,31.8,30.01,West,273,2.0,4.0,68,0.00,,,0.00,0.0,meteohub,2013-03-03 01:11:00,
2013-03-02 20:17:00,41.4,32.0,30.01,West,273,0.0,4.0,69,0.00,,,0.00,0.0,meteohub,2013-03-03 01:17:00,
2013-03-02 20:22:00,41.4,32.0,30.01,WSW,257,2.0,4.0,69,0.00,,,0.00,0.0,meteohub,2013-03-03 01:22:00,
2013-03-02 20:27:00,41.4,32.0,30.01,WNW,290,0.0,4.0,69,0.00,,,0.00,0.0,meteohub,2013-03-03 01:27:00,
2013-03-02 20:32:00,41.4,32.4,30.01,West,269,1.0,4.0,70,0.00,,,0.00,0.0,meteohub,2013-03-03 01:32:00,
2013-03-02 20:37:00,41.4,32.4,30.01,WNW,282,1.0,4.0,70,0.00,,,0.00,0.0,meteohub,2013-03-03 01:37:00,
2013-03-02 20:42:00,41.4,32.0,30.01,NNW,327,0.0,9.0,69,0.00,,,0.00,0.0,meteohub,2013-03-03 01:42:00,
2013-03-02 20:47:00,41.5,32.5,30.01,WNW,299,0.0,9.0,70,0.00,,,0.00,0.0,meteohub,2013-03-03 01:47:00,
2013-03-02 20:52:00,41.5,32.5,30.01,WNW,299,0.0,9.0,70,0.00,,,0.00,0.0,meteohub,2013-03-03 01:52:00,
2013-03-02 20:57:00,41.5,32.5,30.01,West,275,1.0,4.0,70,0.00,,,0.00,0.0,meteohub,2013-03-03 01:57:00,
2013-03-02 21:02:00,41.5,32.5,30.02,West,273,2.0,4.0,70,0.00,,,0.00,0.0,meteohub,2013-03-03 02:02:00,
2013-03-02 21:07:00,41.5,32.5,30.02,West,278,2.0,4.0,70,0.00,,,0.00,0.0,meteohub,2013-03-03 02:07:00,
2013-03-02 21:17:00,41.5,32.5,30.02,WNW,286,1.0,5.0,70,0.00,,,0.00,0.0,meteohub,2013-03-03 02:17:00,
2013-03-02 21:22:00,41.5,32.5,30.02,West,280,0.0,6.0,70,0.00,,,0.00,0.0,meteohub,2013-03-03 02:22:00,
2013-03-02 21:27:00,41.4,32.4,30.02,West,281,2.0,6.0,70,0.00,,,0.00,0.0,meteohub,2013-03-03 02:27:00,
2013-03-02 21:32:00,41.4,32.4,30.02,West,281,0.0,4.0,70,0.00,,,0.00,0.0,meteohub,2013-03-03 02:32:00,
2013-03-02 21:37:00,41.4,32.7,30.02,West,281,0.0,4.0,71,0.00,,,0.00,0.0,meteohub,2013-03-03 02:37:00,
2013-03-02 21:42:00,41.4,32.7,30.02,West,267,0.0,3.0,71,0.00,,,0.00,0.0,meteohub,2013-03-03 02:42:00,
2013-03-02 21:49:00,41.2,32.5,30.02,West,267,0.0,3.0,71,0.00,,,0.00,0.0,meteohub,2013-03-03 02:49:00,
2013-03-02 21:55:00,40.8,32.5,30.02,West,267,2.0,3.0,72,0.00,,,0.00,0.0,meteohub,2013-03-03 02:55:00,
2013-03-02 22:01:00,40.6,32.4,30.03,West,270,1.0,4.0,72,0.00,,,0.00,0.0,meteohub,2013-03-03 03:01:00,
2013-03-02 22:07:00,40.5,32.5,30.02,West,270,2.0,4.0,73,0.00,,,0.00,0.0,meteohub,2013-03-03 03:07:00,
2013-03-02 22:12:00,40.3,32.4,30.02,West,274,1.0,4.0,73,0.00,,,0.00,0.0,meteohub,2013-03-03 03:12:00,
2013-03-02 22:17:00,40.3,32.7,30.02,West,279,2.0,5.0,74,0.00,,,0.00,0.0,meteohub,2013-03-03 03:17:00,
2013-03-02 22:22:00,39.9,32.4,30.02,West,279,0.0,5.0,74,0.00,,,0.00,0.0,meteohub,2013-03-03 03:22:00,
2013-03-02 22:27:00,39.9,32.7,30.02,West,279,1.0,5.0,75,0.00,,,0.00,0.0,meteohub,2013-03-03 03:27:00,
2013-03-02 22:32:00,39.9,32.7,30.03,West,272,3.0,5.0,75,0.00,,,0.00,0.0,meteohub,2013-03-03 03:32:00,
2013-03-02 22:37:00,39.9,32.7,30.03,West,272,0.0,5.0,75,0.00,,,0.00,0.0,meteohub,2013-03-03 03:37:00,
2013-03-02 22:42:00,39.9,32.7,30.03,West,272,1.0,5.0,75,0.00,,,0.00,0.0,meteohub,2013-03-03 03:42:00,
2013-03-02 22:47:00,39.7,32.5,30.02,West,274,3.0,3.0,75,0.00,,,0.00,0.0,meteohub,2013-03-03 03:47:00,
2013-03-02 22:52:00,39.7,32.7,30.02,West,268,2.0,4.0,76,0.00,,,0.00,0.0,meteohub,2013-03-03 03:52:00,
2013-03-02 22:57:00,39.7,32.7,30.02,West,270,0.0,4.0,76,0.00,,,0.00,0.0,meteohub,2013-03-03 03:57:00,
2013-03-02 23:02:00,39.6,32.5,30.02,West,270,1.0,4.0,76,0.00,,,0.00,0.0,meteohub,2013-03-03 04:02:00,
2013-03-02 23:09:00,39.6,32.5,30.02,West,270,0.0,3.0,76,0.00,,,0.00,0.0,meteohub,2013-03-03 04:09:00,
2013-03-02 23:15:00,39.4,32.5,30.02,West,270,0.0,3.0,76,0.00,,,0.00,0.0,meteohub,2013-03-03 04:15:00,
2013-03-02 23:21:00,39.2,32.5,30.02,West,270,0.0,3.0,77,0.00,,,0.00,0.0,meteohub,2013-03-03 04:21:00,
2013-03-02 23:27:00,39.0,32.4,30.01,West,270,0.0,3.0,77,0.00,,,0.00,0.0,meteohub,2013-03-03 04:27:00,
2013-03-02 23:32:00,39.0,32.4,30.01,West,270,0.0,4.0,77,0.00,,,0.00,0.0,meteohub,2013-03-03 04:32:00,
2013-03-02 23:37:00,38.8,32.2,30.01,West,270,0.0,4.0,77,0.00,,,0.00,0.0,meteohub,2013-03-03 04:37:00,
2013-03-02 23:42:00,38.8,32.2,30.01,West,270,1.0,3.0,77,0.00,,,0.00,0.0,meteohub,2013-03-03 04:42:00,
2013-03-02 23:47:00,38.7,32.0,30.01,West,270,2.0,3.0,77,0.00,,,0.00,0.0,meteohub,2013-03-03 04:47:00,
2013-03-02 23:55:00,38.7,32.4,30.01,West,270,1.0,3.0,78,0.00,,,0.00,0.0,meteohub,2013-03-03 04:55:00,